Location: Hungerford
(51.4167°N, 1.5167°W)
Time: 14:47:28
(UTC+00:00)

NOSS 8 (E) - Pass Details

Date: 18 September 2020
Orbit: 385 x 1787 km, 63.3° (Epoch: 27 October)

Event Time Altitude Azimuth Distance (km) Brightness Sun altitude
Rises 19:07:58 0° 223° (SW) 2,431 8.5 -9.3°
Reaches altitude 10° 19:10:07 10° 223° (SW) 1,480 7.4 -9.7°
Maximum altitude 19:13:15 87° 131° (SE) 395 4.0 -10.1°
Drops below altitude 10° 19:16:18 10° 45° (NE) 1,437 6.7 -10.6°
Enters shadow 19:18:10 - 45° (NE) 2,264 7.7 -10.9°
